Tracking 17844 objects as of 27-August-2016
HD Live streaming from Space Station
objects crossing your sky now

CZ-2D DEB

Track CZ-2D DEB now!
10-day predictions


NORAD ID: 35272
Int'l Code: 2005-024L
Perigee: 516.9 km
Apogee: 536.3 km
Inclination: 97.6 °
Period: 95.0 minutes
Semi major axis: 6897 km
RCS: 0.0215 m2 (small)
Launch date: July 5, 2005
Source: People's Republic of China (PRC)
Launch site: Jiuquan Satellite Launch Center, China (JSC)

Note: This is SATELLITE DEBRIS
Your satellite tracking list
Your tracking list is empty





NASA's NSSDC Master Catalog

Two Line Element Set (TLE):
1 35272U 05024L   16234.94192280 +.00000686 +00000-0 +39772-4 0  9993
2 35272 097.6012 271.4982 0014023 164.7493 315.3033 15.15492724592614
Source of the keplerian elements: AFSPC

N2YO: 670